Year,Month,Day,Hour,Minute,Value (Times are PST for temperature in C)
2017,05,19,00,00,9.60
2017,05,19,00,01,9.60
2017,05,19,00,02,9.50
2017,05,19,00,03,9.50
2017,05,19,00,04,9.50
2017,05,19,00,05,9.50
2017,05,19,00,06,9.40
2017,05,19,00,07,9.40
2017,05,19,00,08,9.40
2017,05,19,00,09,9.40
2017,05,19,00,10,9.40
2017,05,19,00,11,9.30
2017,05,19,00,12,9.30
2017,05,19,00,13,9.30
2017,05,19,00,14,9.30
2017,05,19,00,15,9.30
2017,05,19,00,16,9.30
2017,05,19,00,17,9.30
2017,05,19,00,18,9.30
2017,05,19,00,19,9.20
2017,05,19,00,20,9.20
2017,05,19,00,21,9.20
2017,05,19,00,22,9.20
2017,05,19,00,23,9.20
2017,05,19,00,24,9.20
2017,05,19,00,25,9.20
2017,05,19,00,26,9.10
2017,05,19,00,27,9.10
2017,05,19,00,28,9.10
2017,05,19,00,29,9.10
2017,05,19,00,30,9.10
2017,05,19,00,31,9.10
2017,05,19,00,32,9.10
2017,05,19,00,33,9.00
2017,05,19,00,34,9.00
2017,05,19,00,35,9.00
2017,05,19,00,36,9.00
2017,05,19,00,37,8.90
2017,05,19,00,38,8.90
2017,05,19,00,39,8.90
2017,05,19,00,40,8.90
2017,05,19,00,41,8.90
2017,05,19,00,42,8.80
2017,05,19,00,43,8.80
2017,05,19,00,44,8.80
2017,05,19,00,45,8.80
2017,05,19,00,46,8.80
2017,05,19,00,47,8.80
2017,05,19,00,48,8.80
2017,05,19,00,49,8.70
2017,05,19,00,50,8.70
2017,05,19,00,51,8.70
2017,05,19,00,52,8.70
2017,05,19,00,53,8.70
2017,05,19,00,54,8.70
2017,05,19,00,55,8.70
2017,05,19,00,56,8.70
2017,05,19,00,57,8.70
2017,05,19,00,58,8.70
2017,05,19,00,59,8.70
2017,05,19,01,00,8.70
2017,05,19,01,01,8.70
2017,05,19,01,02,8.70
2017,05,19,01,03,8.60
2017,05,19,01,04,8.60
2017,05,19,01,05,8.60
2017,05,19,01,06,8.60
2017,05,19,01,07,8.60
2017,05,19,01,08,8.60
2017,05,19,01,09,8.50
2017,05,19,01,10,8.50
2017,05,19,01,11,8.50
2017,05,19,01,12,8.50
2017,05,19,01,13,8.50
2017,05,19,01,14,8.50
2017,05,19,01,15,8.40
2017,05,19,01,16,8.40
2017,05,19,01,17,8.40
2017,05,19,01,18,8.40
2017,05,19,01,19,8.40
2017,05,19,01,20,8.40
2017,05,19,01,21,8.30
2017,05,19,01,22,8.30
2017,05,19,01,23,8.30
2017,05,19,01,24,8.30
2017,05,19,01,25,8.30
2017,05,19,01,26,8.30
2017,05,19,01,27,8.30
2017,05,19,01,28,8.30
2017,05,19,01,29,8.30
2017,05,19,01,30,8.30
2017,05,19,01,31,8.30
2017,05,19,01,32,8.30
2017,05,19,01,33,8.30
2017,05,19,01,34,8.30
2017,05,19,01,35,8.30
2017,05,19,01,36,8.30
2017,05,19,01,37,8.30
2017,05,19,01,38,8.40
2017,05,19,01,39,8.40
2017,05,19,01,40,8.40
2017,05,19,01,41,8.40
2017,05,19,01,42,8.40
2017,05,19,01,43,8.40
2017,05,19,01,44,8.40
2017,05,19,01,45,8.40
2017,05,19,01,46,8.40
2017,05,19,01,47,8.40
2017,05,19,01,48,8.40
2017,05,19,01,49,8.40
2017,05,19,01,50,8.40
2017,05,19,01,51,8.40
2017,05,19,01,52,8.40
2017,05,19,01,53,8.50
2017,05,19,01,54,8.50
2017,05,19,01,55,8.50
2017,05,19,01,56,8.50
2017,05,19,01,57,8.50
2017,05,19,01,58,8.50
2017,05,19,01,59,8.50
2017,05,19,02,00,8.50
2017,05,19,02,01,8.50
2017,05,19,02,02,8.60
2017,05,19,02,03,8.60
2017,05,19,02,04,8.60
2017,05,19,02,05,8.60
2017,05,19,02,06,8.60
2017,05,19,02,07,8.60
2017,05,19,02,08,8.60
2017,05,19,02,09,8.70
2017,05,19,02,10,8.70
2017,05,19,02,11,8.70
2017,05,19,02,12,8.70
2017,05,19,02,13,8.70
2017,05,19,02,14,8.70
2017,05,19,02,15,8.70
2017,05,19,02,16,8.70
2017,05,19,02,17,8.70
2017,05,19,02,18,8.70
2017,05,19,02,19,8.70
2017,05,19,02,20,8.70
2017,05,19,02,21,8.70
2017,05,19,02,22,8.70
2017,05,19,02,23,8.70
2017,05,19,02,24,8.70
2017,05,19,02,25,8.70
2017,05,19,02,26,8.70
2017,05,19,02,27,8.70
2017,05,19,02,28,8.70
2017,05,19,02,29,8.70
2017,05,19,02,30,8.70
2017,05,19,02,31,8.70
2017,05,19,02,32,8.80
2017,05,19,02,33,8.80
2017,05,19,02,34,8.80
2017,05,19,02,35,8.80
2017,05,19,02,36,8.80
2017,05,19,02,37,8.80
2017,05,19,02,38,8.80
2017,05,19,02,39,8.80
2017,05,19,02,40,8.80
2017,05,19,02,41,8.80
2017,05,19,02,42,8.80
2017,05,19,02,43,8.80
2017,05,19,02,44,8.80
2017,05,19,02,45,8.80
2017,05,19,02,46,8.80
2017,05,19,02,47,8.80
2017,05,19,02,48,8.80
2017,05,19,02,49,8.80
2017,05,19,02,50,8.80
2017,05,19,02,51,8.80
2017,05,19,02,52,8.90
2017,05,19,02,53,8.90
2017,05,19,02,54,8.90
2017,05,19,02,55,8.90
2017,05,19,02,56,8.90
2017,05,19,02,57,8.90
2017,05,19,02,58,8.90
2017,05,19,02,59,9.00
2017,05,19,03,00,9.00
2017,05,19,03,01,9.00
2017,05,19,03,02,9.10
2017,05,19,03,03,9.10
2017,05,19,03,04,9.10
2017,05,19,03,05,9.10
2017,05,19,03,06,9.20
2017,05,19,03,07,9.20
2017,05,19,03,08,9.20
2017,05,19,03,09,9.20
2017,05,19,03,10,9.20
2017,05,19,03,11,9.20
2017,05,19,03,12,9.30
2017,05,19,03,13,9.30
2017,05,19,03,14,9.30
2017,05,19,03,15,9.30
2017,05,19,03,16,9.30
2017,05,19,03,17,9.30
2017,05,19,03,18,9.30
2017,05,19,03,19,9.40
2017,05,19,03,20,9.40
2017,05,19,03,21,9.40
2017,05,19,03,22,9.40
2017,05,19,03,23,9.40
2017,05,19,03,24,9.40
2017,05,19,03,25,9.40
2017,05,19,03,26,9.40
2017,05,19,03,27,9.30
2017,05,19,03,28,9.30
2017,05,19,03,29,9.30
2017,05,19,03,30,9.30
2017,05,19,03,31,9.30
2017,05,19,03,32,9.30
2017,05,19,03,33,9.30
2017,05,19,03,34,9.30
2017,05,19,03,35,9.30
2017,05,19,03,36,9.30
2017,05,19,03,37,9.30
2017,05,19,03,38,9.30
2017,05,19,03,39,9.30
2017,05,19,03,40,9.30
2017,05,19,03,41,9.30
2017,05,19,03,42,9.30
2017,05,19,03,43,9.30
2017,05,19,03,44,9.30
2017,05,19,03,45,9.30
2017,05,19,03,46,9.30
2017,05,19,03,47,9.30
2017,05,19,03,48,9.40
2017,05,19,03,49,9.40
2017,05,19,03,50,9.40
2017,05,19,03,51,9.40
2017,05,19,03,52,9.40
2017,05,19,03,53,9.40
2017,05,19,03,54,9.40
2017,05,19,03,55,9.50
2017,05,19,03,56,9.50
2017,05,19,03,57,9.50
2017,05,19,03,58,9.50
2017,05,19,03,59,9.50
2017,05,19,04,00,9.50
2017,05,19,04,01,9.50
2017,05,19,04,02,9.50
2017,05,19,04,03,9.50
2017,05,19,04,04,9.50
2017,05,19,04,05,9.50
2017,05,19,04,06,9.50
2017,05,19,04,07,9.50
2017,05,19,04,08,9.60
2017,05,19,04,09,9.60
2017,05,19,04,10,9.60
2017,05,19,04,11,9.60
2017,05,19,04,12,9.60
2017,05,19,04,13,9.60
2017,05,19,04,14,9.60
2017,05,19,04,15,9.60
2017,05,19,04,16,9.60
2017,05,19,04,17,9.60
2017,05,19,04,18,9.60
2017,05,19,04,19,9.60
2017,05,19,04,20,9.60
2017,05,19,04,21,9.60
2017,05,19,04,22,9.60
2017,05,19,04,23,9.60
2017,05,19,04,24,9.60
2017,05,19,04,25,9.60
2017,05,19,04,26,9.60
2017,05,19,04,27,9.70
2017,05,19,04,28,9.60
2017,05,19,04,29,9.70
2017,05,19,04,30,9.70
2017,05,19,04,31,9.70
2017,05,19,04,32,9.70
2017,05,19,04,33,9.70
2017,05,19,04,34,9.60
2017,05,19,04,35,9.60
2017,05,19,04,36,9.60
2017,05,19,04,37,9.60
2017,05,19,04,38,9.60
2017,05,19,04,39,9.60
2017,05,19,04,40,9.60
2017,05,19,04,41,9.60
2017,05,19,04,42,9.60
2017,05,19,04,43,9.60
2017,05,19,04,44,9.60
2017,05,19,04,45,9.60
2017,05,19,04,46,9.60
2017,05,19,04,47,9.60
2017,05,19,04,48,9.60
2017,05,19,04,49,9.60
2017,05,19,04,50,9.60
2017,05,19,04,51,9.60
2017,05,19,04,52,9.60
2017,05,19,04,53,9.60
2017,05,19,04,54,9.60
2017,05,19,04,55,9.60
2017,05,19,04,56,9.70
2017,05,19,04,57,9.70
2017,05,19,04,58,9.70
2017,05,19,04,59,9.70
2017,05,19,05,00,9.70
2017,05,19,05,01,9.70
2017,05,19,05,02,9.70
2017,05,19,05,03,9.70
2017,05,19,05,04,9.70
2017,05,19,05,05,9.70
2017,05,19,05,06,9.70
2017,05,19,05,07,9.70
2017,05,19,05,08,9.70
2017,05,19,05,09,9.70
2017,05,19,05,10,9.70
2017,05,19,05,11,9.70
2017,05,19,05,12,9.70
2017,05,19,05,13,9.70
2017,05,19,05,14,9.70
2017,05,19,05,15,9.70
2017,05,19,05,16,9.70
2017,05,19,05,17,9.70
2017,05,19,05,18,9.80
2017,05,19,05,19,9.80
2017,05,19,05,20,9.80
2017,05,19,05,21,9.80
2017,05,19,05,22,9.80
2017,05,19,05,23,9.80
2017,05,19,05,24,9.80
2017,05,19,05,25,9.80
2017,05,19,05,26,9.80
2017,05,19,05,27,9.80
2017,05,19,05,28,9.80
2017,05,19,05,29,9.80
2017,05,19,05,30,9.80
2017,05,19,05,31,9.80
2017,05,19,05,32,9.80
2017,05,19,05,33,9.80
2017,05,19,05,34,9.80
2017,05,19,05,35,9.80
2017,05,19,05,36,9.80
2017,05,19,05,37,9.80
2017,05,19,05,38,9.80
2017,05,19,05,39,9.80
2017,05,19,05,40,9.80
2017,05,19,05,41,9.80
2017,05,19,05,42,9.80
2017,05,19,05,43,9.80
2017,05,19,05,44,9.90
2017,05,19,05,45,9.90
2017,05,19,05,46,9.90
2017,05,19,05,47,10.00
2017,05,19,05,48,10.00
2017,05,19,05,49,10.10
2017,05,19,05,50,10.10
2017,05,19,05,51,10.10
2017,05,19,05,52,10.10
2017,05,19,05,53,10.20
2017,05,19,05,54,10.20
2017,05,19,05,55,10.20
2017,05,19,05,56,10.20
2017,05,19,05,57,10.30
2017,05,19,05,58,10.30
2017,05,19,05,59,10.30
2017,05,19,06,00,10.30
2017,05,19,06,01,10.30
2017,05,19,06,02,10.40
2017,05,19,06,03,10.40
2017,05,19,06,04,10.40
2017,05,19,06,05,10.40
2017,05,19,06,06,10.40
2017,05,19,06,07,10.40
2017,05,19,06,08,10.40
2017,05,19,06,09,10.40
2017,05,19,06,10,10.40
2017,05,19,06,11,10.40
2017,05,19,06,12,10.40
2017,05,19,06,13,10.40
2017,05,19,06,14,10.40
2017,05,19,06,15,10.40
2017,05,19,06,16,10.40
2017,05,19,06,17,10.40
2017,05,19,06,18,10.40
2017,05,19,06,19,10.40
2017,05,19,06,20,10.40
2017,05,19,06,21,10.40
2017,05,19,06,22,10.50
2017,05,19,06,23,10.50
2017,05,19,06,24,10.50
2017,05,19,06,25,10.60
2017,05,19,06,26,10.60
2017,05,19,06,27,10.60
2017,05,19,06,28,10.60
2017,05,19,06,29,10.70
2017,05,19,06,30,10.70
2017,05,19,06,31,10.70
2017,05,19,06,32,10.70
2017,05,19,06,33,10.80
2017,05,19,06,34,10.80
2017,05,19,06,35,10.80
2017,05,19,06,36,10.80
2017,05,19,06,37,10.80
2017,05,19,06,38,10.90
2017,05,19,06,39,10.90
2017,05,19,06,40,10.90
2017,05,19,06,41,10.90
2017,05,19,06,42,10.90
2017,05,19,06,43,10.90
2017,05,19,06,44,11.00
2017,05,19,06,45,11.00
2017,05,19,06,46,11.10
2017,05,19,06,47,11.10
2017,05,19,06,48,11.10
2017,05,19,06,49,11.10
2017,05,19,06,50,11.20
2017,05,19,06,51,11.20
2017,05,19,06,52,11.20
2017,05,19,06,53,11.20
2017,05,19,06,54,11.20
2017,05,19,06,55,11.20
2017,05,19,06,56,11.20
2017,05,19,06,57,11.30
2017,05,19,06,58,11.30
2017,05,19,06,59,11.30
2017,05,19,07,00,11.30
2017,05,19,07,01,11.40
2017,05,19,07,02,11.40
2017,05,19,07,03,11.40
2017,05,19,07,04,11.40
2017,05,19,07,05,11.50
2017,05,19,07,06,11.50
2017,05,19,07,07,11.60
2017,05,19,07,08,11.60
2017,05,19,07,09,11.60
2017,05,19,07,10,11.60
2017,05,19,07,11,11.70
2017,05,19,07,12,11.70
2017,05,19,07,13,11.70
2017,05,19,07,14,11.70
2017,05,19,07,15,11.80
2017,05,19,07,16,11.80
2017,05,19,07,17,11.80
2017,05,19,07,18,11.80
2017,05,19,07,19,11.80
2017,05,19,07,20,11.80
2017,05,19,07,21,11.90
2017,05,19,07,22,11.90
2017,05,19,07,23,11.90
2017,05,19,07,24,11.90
2017,05,19,07,25,11.90
2017,05,19,07,26,11.90
2017,05,19,07,27,12.00
2017,05,19,07,28,12.00
2017,05,19,07,29,12.00
2017,05,19,07,30,12.00
2017,05,19,07,31,12.10
2017,05,19,07,32,12.10
2017,05,19,07,33,12.10
2017,05,19,07,34,12.10
2017,05,19,07,35,12.10
2017,05,19,07,36,12.10
2017,05,19,07,37,12.20
2017,05,19,07,38,12.20
2017,05,19,07,39,12.20
2017,05,19,07,40,12.20
2017,05,19,07,41,12.20
2017,05,19,07,42,12.20
2017,05,19,07,43,12.30
2017,05,19,07,44,12.30
2017,05,19,07,45,12.30
2017,05,19,07,46,12.30
2017,05,19,07,47,12.30
2017,05,19,07,48,12.30
2017,05,19,07,49,12.40
2017,05,19,07,50,12.40
2017,05,19,07,51,12.40
2017,05,19,07,52,12.40
2017,05,19,07,53,12.40
2017,05,19,07,54,12.40
2017,05,19,07,55,12.40
2017,05,19,07,56,12.40
2017,05,19,07,57,12.40
2017,05,19,07,58,12.40
2017,05,19,07,59,12.40
2017,05,19,08,00,12.40
2017,05,19,08,01,12.40
2017,05,19,08,02,12.40
2017,05,19,08,03,12.40
2017,05,19,08,04,12.50
2017,05,19,08,05,12.50
2017,05,19,08,06,12.50
2017,05,19,08,07,12.50
2017,05,19,08,08,12.50
2017,05,19,08,09,12.50
2017,05,19,08,10,12.50
2017,05,19,08,11,12.50
2017,05,19,08,12,12.50
2017,05,19,08,13,12.50
2017,05,19,08,14,12.50
2017,05,19,08,15,12.50
2017,05,19,08,16,12.50
2017,05,19,08,17,12.50
2017,05,19,08,18,12.60
2017,05,19,08,19,12.60
2017,05,19,08,20,12.60
2017,05,19,08,21,12.60
2017,05,19,08,22,12.60
2017,05,19,08,23,12.60
2017,05,19,08,24,12.60
2017,05,19,08,25,12.70
2017,05,19,08,26,12.70
2017,05,19,08,27,12.70
2017,05,19,08,28,12.70
2017,05,19,08,29,12.70
2017,05,19,08,30,12.70
2017,05,19,08,31,12.70
2017,05,19,08,32,12.70
2017,05,19,08,33,12.70
2017,05,19,08,34,12.80
2017,05,19,08,35,12.80
2017,05,19,08,36,12.80
2017,05,19,08,37,12.80
2017,05,19,08,38,12.80
2017,05,19,08,39,12.80
2017,05,19,08,40,12.90
2017,05,19,08,41,12.90
2017,05,19,08,42,12.90
2017,05,19,08,43,13.00
2017,05,19,08,44,13.00
2017,05,19,08,45,13.00
2017,05,19,08,46,13.10
2017,05,19,08,47,13.10
2017,05,19,08,48,13.10
2017,05,19,08,49,13.10
2017,05,19,08,50,13.10
2017,05,19,08,51,13.10
2017,05,19,08,52,13.10
2017,05,19,08,53,13.10
2017,05,19,08,54,13.10
2017,05,19,08,55,13.10
2017,05,19,08,56,13.10
2017,05,19,08,57,13.10
2017,05,19,08,58,13.10
2017,05,19,08,59,13.10
2017,05,19,09,00,13.10
2017,05,19,09,01,13.10
2017,05,19,09,02,13.10
2017,05,19,09,03,13.10
2017,05,19,09,04,13.20
2017,05,19,09,05,13.20
2017,05,19,09,06,13.30
2017,05,19,09,07,13.30
2017,05,19,09,08,13.30
2017,05,19,09,09,13.40
2017,05,19,09,10,13.40
2017,05,19,09,11,13.50
2017,05,19,09,12,13.50
2017,05,19,09,13,13.60
2017,05,19,09,14,13.60
2017,05,19,09,15,13.60
2017,05,19,09,16,13.60
2017,05,19,09,17,13.70
2017,05,19,09,18,13.70
2017,05,19,09,19,13.70
2017,05,19,09,20,13.70
2017,05,19,09,21,13.70
2017,05,19,09,22,13.80
2017,05,19,09,23,13.80
2017,05,19,09,24,13.80
2017,05,19,09,25,13.80
2017,05,19,09,26,13.90
2017,05,19,09,27,13.90
2017,05,19,09,28,13.90
2017,05,19,09,29,13.90
2017,05,19,09,30,13.90
2017,05,19,09,31,13.90
2017,05,19,09,32,13.80
2017,05,19,09,33,13.80
2017,05,19,09,34,13.90
2017,05,19,09,35,13.90
2017,05,19,09,36,13.90
2017,05,19,09,37,14.00
2017,05,19,09,38,14.00
2017,05,19,09,39,14.10
2017,05,19,09,40,14.10
2017,05,19,09,41,14.20
2017,05,19,09,42,14.20
2017,05,19,09,43,14.30
2017,05,19,09,44,14.30
2017,05,19,09,45,14.30
2017,05,19,09,46,14.30
2017,05,19,09,47,14.40
2017,05,19,09,48,14.40
2017,05,19,09,49,14.40
2017,05,19,09,50,14.40
2017,05,19,09,51,14.50
2017,05,19,09,52,14.50
2017,05,19,09,53,14.60
2017,05,19,09,54,14.70
2017,05,19,09,55,14.70
2017,05,19,09,56,14.70
2017,05,19,09,57,14.80
2017,05,19,09,58,14.80
2017,05,19,09,59,14.80
2017,05,19,10,00,14.90
2017,05,19,10,01,14.90
2017,05,19,10,02,14.90
2017,05,19,10,03,15.00
2017,05,19,10,04,15.00
2017,05,19,10,05,15.10
2017,05,19,10,06,15.10
2017,05,19,10,07,15.10
2017,05,19,10,08,15.20
2017,05,19,10,09,15.20
2017,05,19,10,10,15.20
2017,05,19,10,11,15.20
2017,05,19,10,12,15.20
2017,05,19,10,13,15.30
2017,05,19,10,14,15.30
2017,05,19,10,15,15.30
2017,05,19,10,16,15.30
2017,05,19,10,17,15.30
2017,05,19,10,18,15.40
2017,05,19,10,19,15.40
2017,05,19,10,20,15.50
2017,05,19,10,21,15.60
2017,05,19,10,22,15.60
2017,05,19,10,23,15.70
2017,05,19,10,24,15.70
2017,05,19,10,25,15.70
2017,05,19,10,26,15.70
2017,05,19,10,27,15.70
2017,05,19,10,28,15.70
2017,05,19,10,29,15.70
2017,05,19,10,30,15.70
2017,05,19,10,31,15.70
2017,05,19,10,32,15.70
2017,05,19,10,33,15.60
2017,05,19,10,34,15.60
2017,05,19,10,35,15.60
2017,05,19,10,36,15.60
2017,05,19,10,37,15.60
2017,05,19,10,38,15.60
2017,05,19,10,39,15.70
2017,05,19,10,40,15.70
2017,05,19,10,41,15.70
2017,05,19,10,42,15.80
2017,05,19,10,43,15.80
2017,05,19,10,44,15.90
2017,05,19,10,45,16.00
2017,05,19,10,46,16.10
2017,05,19,10,47,16.20
2017,05,19,10,48,16.20
2017,05,19,10,49,16.20
2017,05,19,10,50,16.20
2017,05,19,10,51,16.20
2017,05,19,10,52,16.20
2017,05,19,10,53,16.20
2017,05,19,10,54,16.30
2017,05,19,10,55,16.30
2017,05,19,10,56,16.30
2017,05,19,10,57,16.30
2017,05,19,10,58,16.40
2017,05,19,10,59,16.50
2017,05,19,11,00,16.60
2017,05,19,11,01,16.70
2017,05,19,11,02,16.70
2017,05,19,11,03,16.70
2017,05,19,11,04,16.60
2017,05,19,11,05,16.60
2017,05,19,11,06,16.50
2017,05,19,11,07,16.50
2017,05,19,11,08,16.40
2017,05,19,11,09,16.40
2017,05,19,11,10,16.30
2017,05,19,11,11,16.20
2017,05,19,11,12,16.10
2017,05,19,11,13,16.10
2017,05,19,11,14,16.10
2017,05,19,11,15,16.10
2017,05,19,11,16,16.10
2017,05,19,11,17,16.10
2017,05,19,11,18,16.10
2017,05,19,11,19,16.10
2017,05,19,11,20,16.10
2017,05,19,11,21,16.10
2017,05,19,11,22,16.10
2017,05,19,11,23,16.00
2017,05,19,11,24,16.00
2017,05,19,11,25,16.00
2017,05,19,11,26,15.90
2017,05,19,11,27,15.90
2017,05,19,11,28,15.90
2017,05,19,11,29,15.90
2017,05,19,11,30,15.90
2017,05,19,11,31,16.00
2017,05,19,11,32,16.00
2017,05,19,11,33,16.10
2017,05,19,11,34,16.10
2017,05,19,11,35,16.10
2017,05,19,11,36,16.20
2017,05,19,11,37,16.20
2017,05,19,11,38,16.20
2017,05,19,11,39,16.10
2017,05,19,11,40,16.10
2017,05,19,11,41,16.10
2017,05,19,11,42,16.10
2017,05,19,11,43,16.20
2017,05,19,11,44,16.30
2017,05,19,11,45,16.40
2017,05,19,11,46,16.60
2017,05,19,11,47,16.80
2017,05,19,11,48,16.90
2017,05,19,11,49,17.10
2017,05,19,11,50,17.30
2017,05,19,11,51,17.40
2017,05,19,11,52,17.50
2017,05,19,11,53,17.70
2017,05,19,11,54,17.80
2017,05,19,11,55,17.80
2017,05,19,11,56,17.80
2017,05,19,11,57,17.80
2017,05,19,11,58,17.70
2017,05,19,11,59,17.70
2017,05,19,12,00,17.60
2017,05,19,12,01,17.50
2017,05,19,12,02,17.40
2017,05,19,12,03,17.40
2017,05,19,12,04,17.30
2017,05,19,12,05,17.20
2017,05,19,12,06,17.20
2017,05,19,12,07,17.20
2017,05,19,12,08,17.10
2017,05,19,12,09,17.10
2017,05,19,12,10,17.00
2017,05,19,12,11,16.90
2017,05,19,12,12,16.90
2017,05,19,12,13,16.90
2017,05,19,12,14,16.80
2017,05,19,12,15,16.80
2017,05,19,12,16,16.80
2017,05,19,12,17,16.80
2017,05,19,12,18,16.70
2017,05,19,12,19,16.70
2017,05,19,12,20,16.70
2017,05,19,12,21,16.70
2017,05,19,12,22,16.70
2017,05,19,12,23,16.70
2017,05,19,12,24,16.70
2017,05,19,12,25,16.70
2017,05,19,12,26,16.70
2017,05,19,12,27,16.80
2017,05,19,12,28,16.80
2017,05,19,12,29,16.80
2017,05,19,12,30,16.80
2017,05,19,12,31,16.80
2017,05,19,12,32,16.80
2017,05,19,12,33,16.90
2017,05,19,12,34,16.90
2017,05,19,12,35,17.00
2017,05,19,12,36,17.00
2017,05,19,12,37,17.10
2017,05,19,12,38,17.10
2017,05,19,12,39,17.10
2017,05,19,12,40,17.10
2017,05,19,12,41,17.10
2017,05,19,12,42,17.10
2017,05,19,12,43,17.10
2017,05,19,12,44,17.10
2017,05,19,12,45,17.10
2017,05,19,12,46,17.10
2017,05,19,12,47,17.10
2017,05,19,12,48,17.10
2017,05,19,12,49,17.10
2017,05,19,12,50,17.10
2017,05,19,12,51,17.10
2017,05,19,12,52,17.20
2017,05,19,12,53,17.30
2017,05,19,12,54,17.40
2017,05,19,12,55,17.50
2017,05,19,12,56,17.60
2017,05,19,12,57,17.60
2017,05,19,12,58,17.60
2017,05,19,12,59,17.50
2017,05,19,13,00,17.40
2017,05,19,13,01,17.30
2017,05,19,13,02,17.30
2017,05,19,13,03,17.20
2017,05,19,13,04,17.20
2017,05,19,13,05,17.10
2017,05,19,13,06,17.10
2017,05,19,13,07,17.20
2017,05,19,13,08,17.20
2017,05,19,13,09,17.30
2017,05,19,13,10,17.40
2017,05,19,13,11,17.50
2017,05,19,13,12,17.60
2017,05,19,13,13,17.60
2017,05,19,13,14,17.60
2017,05,19,13,15,17.60
2017,05,19,13,16,17.50
2017,05,19,13,17,17.40
2017,05,19,13,18,17.40
2017,05,19,13,19,17.40
2017,05,19,13,20,17.40
2017,05,19,13,21,17.30
2017,05,19,13,22,17.30
2017,05,19,13,23,17.30
2017,05,19,13,24,17.40
2017,05,19,13,25,17.50
2017,05,19,13,26,17.60
2017,05,19,13,27,17.70
2017,05,19,13,28,17.70
2017,05,19,13,29,17.80
2017,05,19,13,30,17.80
2017,05,19,13,31,17.80
2017,05,19,13,32,17.80
2017,05,19,13,33,17.80
2017,05,19,13,34,17.80
2017,05,19,13,35,17.80
2017,05,19,13,36,17.80
2017,05,19,13,37,17.90
2017,05,19,13,38,17.90
2017,05,19,13,39,18.00
2017,05,19,13,40,18.00
2017,05,19,13,41,18.10
2017,05,19,13,42,18.20
2017,05,19,13,43,18.40
2017,05,19,13,44,18.50
2017,05,19,13,45,18.60
2017,05,19,13,46,18.70
2017,05,19,13,47,18.70
2017,05,19,13,48,18.70
2017,05,19,13,49,18.60
2017,05,19,13,50,18.60
2017,05,19,13,51,18.60
2017,05,19,13,52,18.60
2017,05,19,13,53,18.60
2017,05,19,13,54,18.50
2017,05,19,13,55,18.40
2017,05,19,13,56,18.30
2017,05,19,13,57,18.20
2017,05,19,13,58,18.10
2017,05,19,13,59,18.10
2017,05,19,14,00,18.10
2017,05,19,14,01,18.10
2017,05,19,14,02,18.20
2017,05,19,14,03,18.20
2017,05,19,14,04,18.30
2017,05,19,14,05,18.40
2017,05,19,14,06,18.50
2017,05,19,14,07,18.60
2017,05,19,14,08,18.70
2017,05,19,14,09,18.80
2017,05,19,14,10,18.90
2017,05,19,14,11,19.00
2017,05,19,14,12,19.10
2017,05,19,14,13,19.20
2017,05,19,14,14,19.30
2017,05,19,14,15,19.40
2017,05,19,14,16,19.40
2017,05,19,14,17,19.50
2017,05,19,14,18,19.50
2017,05,19,14,19,19.40
2017,05,19,14,20,19.30
2017,05,19,14,21,19.10
2017,05,19,14,22,18.90
2017,05,19,14,23,18.70
2017,05,19,14,24,18.50
2017,05,19,14,25,18.40
2017,05,19,14,26,18.30
2017,05,19,14,27,18.20
2017,05,19,14,28,18.10
2017,05,19,14,29,18.10
2017,05,19,14,30,18.10
2017,05,19,14,31,18.10
2017,05,19,14,32,18.10
2017,05,19,14,33,18.20
2017,05,19,14,34,18.20
2017,05,19,14,35,18.30
2017,05,19,14,36,18.30
2017,05,19,14,37,18.30
2017,05,19,14,38,18.20
2017,05,19,14,39,18.20
2017,05,19,14,40,18.30
2017,05,19,14,41,18.30
2017,05,19,14,42,18.40
2017,05,19,14,43,18.50
2017,05,19,14,44,18.50
2017,05,19,14,45,18.50
2017,05,19,14,46,18.40
2017,05,19,14,47,18.40
2017,05,19,14,48,18.40
2017,05,19,14,49,18.30
2017,05,19,14,50,18.30
2017,05,19,14,51,18.20
2017,05,19,14,52,18.10
2017,05,19,14,53,18.10
2017,05,19,14,54,18.10
2017,05,19,14,55,18.10
2017,05,19,14,56,18.10
2017,05,19,14,57,18.10
2017,05,19,14,58,18.10
2017,05,19,14,59,18.00
2017,05,19,15,00,18.00
2017,05,19,15,01,18.10
2017,05,19,15,02,18.00
2017,05,19,15,03,18.00
2017,05,19,15,04,17.90
2017,05,19,15,05,17.90
2017,05,19,15,06,17.90
2017,05,19,15,07,18.00
2017,05,19,15,08,18.10
2017,05,19,15,09,18.20
2017,05,19,15,10,18.20
2017,05,19,15,11,18.20
2017,05,19,15,12,18.20
2017,05,19,15,13,18.20
2017,05,19,15,14,18.10
2017,05,19,15,15,18.10
2017,05,19,15,16,18.10
2017,05,19,15,17,18.10
2017,05,19,15,18,18.10
2017,05,19,15,19,18.00
2017,05,19,15,20,18.00
2017,05,19,15,21,18.10
2017,05,19,15,22,18.10
2017,05,19,15,23,18.10
2017,05,19,15,24,18.20
2017,05,19,15,25,18.20
2017,05,19,15,26,18.20
2017,05,19,15,27,18.20
2017,05,19,15,28,18.20
2017,05,19,15,29,18.30
2017,05,19,15,30,18.40
2017,05,19,15,31,18.40
2017,05,19,15,32,18.50
2017,05,19,15,33,18.60
2017,05,19,15,34,18.60
2017,05,19,15,35,18.70
2017,05,19,15,36,18.70
2017,05,19,15,37,18.70
2017,05,19,15,38,18.70
2017,05,19,15,39,18.70
2017,05,19,15,40,18.80
2017,05,19,15,41,18.80
2017,05,19,15,42,18.90
2017,05,19,15,43,18.90
2017,05,19,15,44,19.00
2017,05,19,15,45,19.00
2017,05,19,15,46,19.00
2017,05,19,15,47,19.10
2017,05,19,15,48,19.10
2017,05,19,15,49,19.10
2017,05,19,15,50,19.10
2017,05,19,15,51,19.20
2017,05,19,15,52,19.20
2017,05,19,15,53,19.20
2017,05,19,15,54,19.20
2017,05,19,15,55,19.20
2017,05,19,15,56,19.30
2017,05,19,15,57,19.30
2017,05,19,15,58,19.30
2017,05,19,15,59,19.30
2017,05,19,16,00,19.30
2017,05,19,16,01,19.40
2017,05,19,16,02,19.40
2017,05,19,16,03,19.50
2017,05,19,16,04,19.50
2017,05,19,16,05,19.40
2017,05,19,16,06,19.40
2017,05,19,16,07,19.30
2017,05,19,16,08,19.30
2017,05,19,16,09,19.20
2017,05,19,16,10,19.20
2017,05,19,16,11,19.10
2017,05,19,16,12,19.00
2017,05,19,16,13,19.00
2017,05,19,16,14,18.90
2017,05,19,16,15,18.80
2017,05,19,16,16,18.80
2017,05,19,16,17,18.80
2017,05,19,16,18,18.80
2017,05,19,16,19,18.80
2017,05,19,16,20,18.80
2017,05,19,16,21,18.80
2017,05,19,16,22,18.80
2017,05,19,16,23,18.80
2017,05,19,16,24,18.80
2017,05,19,16,25,18.80
2017,05,19,16,26,18.70
2017,05,19,16,27,18.70
2017,05,19,16,28,18.60
2017,05,19,16,29,18.60
2017,05,19,16,30,18.50
2017,05,19,16,31,18.50
2017,05,19,16,32,18.50
2017,05,19,16,33,18.40
2017,05,19,16,34,18.40
2017,05,19,16,35,18.40
2017,05,19,16,36,18.40
2017,05,19,16,37,18.40
2017,05,19,16,38,18.40
2017,05,19,16,39,18.40
2017,05,19,16,40,18.40
2017,05,19,16,41,18.40
2017,05,19,16,42,18.40
2017,05,19,16,43,18.30
2017,05,19,16,44,18.30
2017,05,19,16,45,18.30
2017,05,19,16,46,18.20
2017,05,19,16,47,18.10
2017,05,19,16,48,18.10
2017,05,19,16,49,18.00
2017,05,19,16,50,17.90
2017,05,19,16,51,17.90
2017,05,19,16,52,17.80
2017,05,19,16,53,17.70
2017,05,19,16,54,17.70
2017,05,19,16,55,17.60
2017,05,19,16,56,17.50
2017,05,19,16,57,17.50
2017,05,19,16,58,17.40
2017,05,19,16,59,17.40
2017,05,19,17,00,17.40
2017,05,19,17,01,17.30
2017,05,19,17,02,17.30
2017,05,19,17,03,17.30
2017,05,19,17,04,17.30
2017,05,19,17,05,17.20
2017,05,19,17,06,17.20
2017,05,19,17,07,17.20
2017,05,19,17,08,17.10
2017,05,19,17,09,17.10
2017,05,19,17,10,17.10
2017,05,19,17,11,17.10
2017,05,19,17,12,17.10
2017,05,19,17,13,17.10
2017,05,19,17,14,17.10
2017,05,19,17,15,17.00
2017,05,19,17,16,17.00
2017,05,19,17,17,17.00
2017,05,19,17,18,16.90
2017,05,19,17,19,16.90
2017,05,19,17,20,16.90
2017,05,19,17,21,16.90
2017,05,19,17,22,16.90
2017,05,19,17,23,16.80
2017,05,19,17,24,16.80
2017,05,19,17,25,16.80
2017,05,19,17,26,16.80
2017,05,19,17,27,16.80
2017,05,19,17,28,16.80
2017,05,19,17,29,16.80
2017,05,19,17,30,16.80
2017,05,19,17,31,16.80
2017,05,19,17,32,16.70
2017,05,19,17,33,16.70
2017,05,19,17,34,16.70